Ottawa International, Ontario

5:43 PM EST on January 23, 2018 (GMT -0500)
Ottawa International Airport

Weather History for CYOW - April, 2013

Change the Weather History Date:

Tuesday, April 23, 2013

  Actual Average Record
Temperature  
Mean Temperature 46 °F -  
Max Temperature 61 °F 62 °F 78 °F (2001)
Min Temperature 30 °F 42 °F 28 °F (2002)
Degree Days  
Heating Degree Days 20    
Moisture  
Dew Point 27 °F    
Average Humidity 45    
Maximum Humidity 65    
Minimum Humidity 20    
Precipitation  
Precipitation 0.00 in 0.10 in - ()
Sea Level Pressure  
Sea Level Pressure 30.28 in    
Wind  
Wind Speed 8 mph ()    
Max Wind Speed 14 mph    
Max Gust Speed 21 mph    
Visibility 15.0 miles    
Events      
Averages and records for this station are not official NWS values.
T = Trace of Precipitation, MM = Missing Value Source: Averaged Metar Reports

Daily Weather History Graph

Daily Weather History Graph

Search for Another Location

Airport or City:

Trip Planner

Search our weather history database for the weather conditions in past years. The results will help you decide how hot, cold, wet, or windy it might be!

Date:

Astronomy

Apr. 23, 2013 Rise Set
Actual Time 6:03 AM EDT 7:59 PM EDT
Civil Twilight 5:31 AM EDT 8:30 PM EDT
Nautical Twilight 4:53 AM EDT 9:10 PM EDT
Astronomical Twilight 4:10 AM EDT 9:52 PM EDT
Moon 5:46 PM EDT 4:36 AM EDT
Length of Visible Light 14h 59m
Length of Day
13h 55m
Waxing Gibbous, 94% of the Moon is Illuminated
Apr 23
Waxing Gibbous
Apr 25
Full
May 2
Last Quarter
May 9
New
May 18
First Quarter

Hourly Weather History & Observations

Time (EDT) Temp. Windchill Dew Point Humidity Pressure Visibility Wind Dir Wind Speed Gust Speed Precip Events Conditions
12:00 AM 39.2 °F 33.6 °F 23.0 °F 52% 30.42 in 15.0 mi SE 8.1 mph - N/A   Clear
1:00 AM 39.2 °F 33.6 °F 21.2 °F 49% 30.42 in 15.0 mi SE 8.1 mph - N/A   Clear
2:00 AM 40 °F - 22 °F 35% 30.42 in 15 mi SE 9.2 mph - -  
2:00 AM 39.2 °F 33.0 °F 23.0 °F 52% 30.42 in 15.0 mi SE 9.2 mph - N/A   Clear
3:00 AM 37.4 °F 31.4 °F 21.2 °F 52% 30.40 in 15.0 mi SE 8.1 mph - N/A   Clear
3:39 AM 35.6 °F 29.2 °F 21.2 °F 56% 30.40 in 15.0 mi SE 8.1 mph - N/A   Partly Cloudy
4:00 AM 35.6 °F 29.2 °F 21.2 °F 56% 30.40 in 15.0 mi SE 8.1 mph - N/A   Partly Cloudy
5:00 AM 35.6 °F 29.9 °F 21.2 °F 56% 30.40 in 15.0 mi SE 6.9 mph - N/A   Clear
6:00 AM 33.8 °F 27.7 °F 23.0 °F 65% 30.40 in 15.0 mi East 6.9 mph - N/A   Clear
7:00 AM 35.6 °F 30.7 °F 24.8 °F 65% 30.40 in 15.0 mi East 5.8 mph - N/A   Clear
8:00 AM 42 °F - 27 °F 43% 30.40 in 15 mi ESE 8.1 mph - -  
8:00 AM 42.8 °F 37.5 °F 26.6 °F 53% 30.40 in 15.0 mi ESE 9.2 mph - N/A   Clear
9:00 AM 46.4 °F 41.9 °F 28.4 °F 50% 30.38 in 15.0 mi SSE 9.2 mph - N/A   Clear
10:00 AM 50.0 °F - 30.2 °F 47% 30.36 in 15.0 mi SSE 11.5 mph - N/A   Partly Cloudy
11:00 AM 53.6 °F - 32.0 °F 44% 30.34 in 15.0 mi SSW 8.1 mph - N/A   Partly Cloudy
12:00 PM 55.4 °F - 30.2 °F 38% 30.30 in 15.0 mi ESE 10.4 mph - N/A   Partly Cloudy
1:00 PM 55.4 °F - 30.2 °F 38% 30.27 in 15.0 mi SE 10.4 mph 20.7 mph N/A   Partly Cloudy
2:00 PM 58 °F - 28 °F 20% 30.25 in 15 mi ESE 10.4 mph - -   Clear
2:00 PM 57.2 °F - 28.4 °F 33% 30.25 in 15.0 mi ESE 13.8 mph 19.6 mph N/A   Partly Cloudy
3:00 PM 60.8 °F - 30.2 °F 31% 30.20 in 15.0 mi ESE 11.5 mph 18.4 mph N/A   Partly Cloudy
4:00 PM 60.8 °F - 28.4 °F 29% 30.17 in 15.0 mi SSE 12.7 mph 18.4 mph N/A   Mostly Cloudy
5:00 PM 60.8 °F - 28.4 °F 29% 30.14 in 15.0 mi SSE 11.5 mph 17.3 mph N/A   Mostly Cloudy
6:00 PM 60.8 °F - 28.4 °F 29% 30.14 in 15.0 mi South 9.2 mph - N/A   Mostly Cloudy
7:00 PM 59.0 °F - 28.4 °F 31% 30.09 in 15.0 mi SE 8.1 mph - N/A   Partly Cloudy
8:00 PM 51 °F - 29 °F 30% 30.10 in 15 mi ESE 9.2 mph - -   Scattered Clouds
8:00 PM 50.0 °F - 28.4 °F 43% 30.10 in 15.0 mi ESE 8.1 mph - N/A   Partly Cloudy
9:00 PM 48.2 °F - 30.2 °F 50% 30.08 in 15.0 mi ESE 8.1 mph - N/A   Partly Cloudy
10:00 PM 46.4 °F 45.2 °F 30.2 °F 53% 30.06 in 15.0 mi SE 3.5 mph - N/A   Mostly Cloudy
11:00 PM 41.0 °F 37.1 °F 30.2 °F 65% 30.05 in 15.0 mi ESE 5.8 mph - N/A   Mostly Cloudy